Photometre #543[NE_1.6] Beijing-CAMS AOT

File : 20200926_543.hum

26/09/2020,03:57:23,TEMP=29.3,BA=5.60,STAT.D=16.5,ExtBa=12.45
26/09/2020,04:00:23,TEMP=29.5,BA=5.64,STAT.D=16.5,ExtBa=12.45
26/09/2020,04:03:23,TEMP=29.7,BA=5.64,STAT.D=16.5,ExtBa=12.44
26/09/2020,04:06:23,TEMP=29.7,BA=5.64,STAT.D=16.5,ExtBa=12.42
26/09/2020,04:08:15,TEMP=29.8,BA=5.64,STAT.F,ExtBa=12.40
26/09/2020,04:23:37,TEMP=29.5,BA=5.48,STAT.D=16.5,ExtBa=12.51
26/09/2020,04:27:23,TEMP=30.0,BA=5.48,STAT.D=16.5,ExtBa=12.49
26/09/2020,04:30:23,TEMP=30.2,BA=5.64,STAT.D=16.5,ExtBa=12.49
26/09/2020,04:33:23,TEMP=30.2,BA=5.64,STAT.D=16.5,ExtBa=12.48
26/09/2020,04:36:23,TEMP=30.2,BA=5.64,STAT.D=16.5,ExtBa=12.48
26/09/2020,04:38:14,TEMP=30.2,BA=5.64,STAT.D=16.5,ExtBa=12.47
26/09/2020,04:42:23,TEMP=30.0,BA=5.48,STAT.D=16.5,ExtBa=12.49
26/09/2020,04:45:23,TEMP=30.1,BA=5.48,STAT.D=16.5,ExtBa=12.47
26/09/2020,04:48:23,TEMP=30.2,BA=5.48,STAT.D=16.5,ExtBa=12.46
26/09/2020,04:51:23,TEMP=30.2,BA=5.56,STAT.D=16.5,ExtBa=12.46
26/09/2020,04:53:14,TEMP=30.2,BA=5.56,STAT.D=16.5,ExtBa=12.46
26/09/2020,04:57:23,TEMP=29.9,BA=5.56,STAT.D=16.5,ExtBa=12.46
26/09/2020,05:00:23,TEMP=30.1,BA=5.64,STAT.D=16.5,ExtBa=12.46
26/09/2020,05:03:23,TEMP=30.3,BA=5.64,STAT.D=16.5,ExtBa=12.45
26/09/2020,05:06:23,TEMP=30.5,BA=5.64,STAT.D=16.5,ExtBa=12.45
26/09/2020,05:08:15,TEMP=30.8,BA=5.64,STAT.F,ExtBa=12.42
26/09/2020,05:23:41,TEMP=29.9,BA=5.44,STAT.D=16.5,ExtBa=12.50
26/09/2020,05:36:23,TEMP=29.5,BA=5.64,STAT.D=16.5,ExtBa=12.50
26/09/2020,05:38:16,TEMP=29.8,BA=5.64,STAT.D=16.5,ExtBa=12.50
26/09/2020,05:42:23,TEMP=29.7,BA=5.48,STAT.D=16.5,ExtBa=12.54
26/09/2020,05:45:22,TEMP=29.8,BA=5.48,STAT.D=16.5,ExtBa=12.53
26/09/2020,05:48:22,TEMP=29.6,BA=5.48,STAT.D=16.5,ExtBa=12.52
26/09/2020,05:51:22,TEMP=29.5,BA=5.56,STAT.D=16.5,ExtBa=12.51
26/09/2020,05:53:13,TEMP=29.6,BA=5.56,STAT.D=16.5,ExtBa=12.50
26/09/2020,05:57:22,TEMP=29.5,BA=5.56,STAT.D=16.5,ExtBa=12.51
26/09/2020,06:00:22,TEMP=29.7,BA=5.64,STAT.D=16.5,ExtBa=12.47
26/09/2020,06:03:22,TEMP=29.7,BA=5.64,STAT.D=16.5,ExtBa=12.49
26/09/2020,06:06:22,TEMP=29.8,BA=5.64,STAT.D=16.5,ExtBa=12.48
26/09/2020,06:08:16,TEMP=30.0,BA=5.64,STAT.F,ExtBa=12.42
26/09/2020,06:23:24,TEMP=29.4,BA=5.44,STAT.D=16.5,ExtBa=12.32
26/09/2020,06:27:22,TEMP=28.9,BA=5.44,STAT.D=16.5,ExtBa=12.52
26/09/2020,06:30:22,TEMP=28.9,BA=5.64,STAT.D=16.5,ExtBa=12.52
26/09/2020,06:33:22,TEMP=29.0,BA=5.64,STAT.D=16.5,ExtBa=12.53
26/09/2020,06:36:22,TEMP=29.2,BA=5.64,STAT.D=16.5,ExtBa=12.53
26/09/2020,06:38:14,TEMP=29.4,BA=5.64,STAT.D=16.5,ExtBa=12.48
26/09/2020,06:42:22,TEMP=29.2,BA=5.48,STAT.D=16.5,ExtBa=12.53
26/09/2020,06:45:22,TEMP=29.2,BA=5.48,STAT.D=16.5,ExtBa=12.51
26/09/2020,06:48:22,TEMP=29.1,BA=5.48,STAT.D=16.5,ExtBa=12.52
26/09/2020,06:51:22,TEMP=29.1,BA=5.52,STAT.D=16.5,ExtBa=12.51
26/09/2020,06:53:15,TEMP=29.2,BA=5.52,STAT.D=16.5,ExtBa=12.49
26/09/2020,06:57:22,TEMP=29.0,BA=5.52,STAT.D=16.5,ExtBa=12.50
26/09/2020,07:00:22,TEMP=29.0,BA=5.64,STAT.D=16.5,ExtBa=12.50
26/09/2020,07:03:22,TEMP=28.8,BA=5.64,STAT.D=16.5,ExtBa=12.52
26/09/2020,07:06:22,TEMP=28.7,BA=5.64,STAT.D=16.5,ExtBa=12.51
26/09/2020,07:08:16,TEMP=28.9,BA=5.64,STAT.F,ExtBa=12.46
26/09/2020,07:23:33,TEMP=29.0,BA=5.44,STAT.B=16.5,ExtBa=12.22
26/09/2020,07:35:35,TEMP=28.9,BA=5.64,STAT.A=16.5,ExtBa=12.54
26/09/2020,07:48:22,TEMP=27.4,BA=5.64,STAT.D=16.5,ExtBa=12.48
26/09/2020,07:50:16,TEMP=27.6,BA=5.48,STAT.A=16.5,ExtBa=12.60
26/09/2020,07:54:22,TEMP=27.5,BA=5.48,STAT.D=16.5,ExtBa=12.61
26/09/2020,07:57:22,TEMP=27.6,BA=5.48,STAT.D=16.5,ExtBa=12.55
26/09/2020,08:00:22,TEMP=27.6,BA=5.64,STAT.D=16.5,ExtBa=12.58
26/09/2020,08:02:14,TEMP=27.7,BA=5.64,STAT.A=16.0,ExtBa=12.51
26/09/2020,08:06:22,TEMP=27.4,BA=5.64,STAT.D=16.5,ExtBa=12.56
26/09/2020,08:09:21,TEMP=27.3,BA=5.64,STAT.D=16.5,ExtBa=12.57
26/09/2020,08:11:14,TEMP=27.4,BA=5.44,STAT.A=16.0,ExtBa=12.36
26/09/2020,08:18:33,TEMP=27.0,BA=5.44,STAT.C=16.5,ExtBa=12.54
26/09/2020,08:30:08,TEMP=27.1,BA=5.44,STAT.A=16.5,ExtBa=12.28
26/09/2020,08:33:04,TEMP=27.0,BA=5.44,STAT.A=16.5,ExtBa=12.48
26/09/2020,08:36:49,TEMP=26.9,BA=5.44,STAT.A=16.5,ExtBa=12.54
26/09/2020,08:41:32,TEMP=26.7,BA=5.60,STAT.A=16.5,ExtBa=12.53
26/09/2020,08:45:44,TEMP=26.5,BA=5.60,STAT.B=16.5,ExtBa=12.53
26/09/2020,08:54:31,TEMP=26.0,BA=5.64,STAT.A=16.5,ExtBa=12.50
26/09/2020,09:00:21,TEMP=25.8,BA=5.64,STAT.D=16.5,ExtBa=12.52
26/09/2020,09:02:16,TEMP=26.0,BA=5.64,STAT.A=16.5,ExtBa=12.51
26/09/2020,09:06:21,TEMP=25.6,BA=5.64,STAT.D=16.5,ExtBa=12.55
26/09/2020,09:08:21,TEMP=25.6,BA=5.64,STAT.A=16.0,ExtBa=12.44
26/09/2020,09:11:48,TEMP=25.3,BA=5.48,STAT.A=16.5,ExtBa=12.56
26/09/2020,09:15:52,TEMP=25.1,BA=5.48,STAT.A=16.5,ExtBa=12.45
26/09/2020,09:19:06,TEMP=24.9,BA=5.48,STAT.A=16.5,ExtBa=12.57
26/09/2020,22:54:43,TEMP=16.2,BA=5.64,STAT.A=16.0,ExtBa=12.48
26/09/2020,22:58:05,TEMP=16.5,BA=5.64,STAT.A=16.0,ExtBa=12.45
26/09/2020,23:02:02,TEMP=16.6,BA=5.56,STAT.A=16.0,ExtBa=12.44
26/09/2020,23:06:43,TEMP=16.7,BA=5.56,STAT.A=16.0,ExtBa=12.44
26/09/2020,23:12:22,TEMP=16.9,BA=5.64,STAT.A=16.0,ExtBa=12.44
26/09/2020,23:19:20,TEMP=17.1,BA=5.64,STAT.A=16.0,ExtBa=12.44
26/09/2020,23:28:08,TEMP=17.5,BA=5.60,STAT.B=16.0,ExtBa=12.44
26/09/2020,23:32:21,TEMP=17.8,BA=5.56,STAT.A=16.0,ExtBa=12.43
26/09/2020,23:37:04,TEMP=18.1,BA=5.56,STAT.A=16.0,ExtBa=12.42
26/09/2020,23:42:24,TEMP=18.5,BA=5.64,STAT.A=16.0,ExtBa=12.43
26/09/2020,23:48:27,TEMP=18.9,BA=5.64,STAT.A=16.0,ExtBa=12.42
26/09/2020,23:51:21,TEMP=19.3,BA=5.56,STAT.D=16.0,ExtBa=12.39
26/09/2020,23:54:21,TEMP=19.6,BA=5.56,STAT.D=16.0,ExtBa=12.38
26/09/2020,23:56:12,TEMP=19.9,BA=5.56,STAT.C=16.0,ExtBa=12.36